Location: Newark
(49.1000°N, 0.4667°W)
Time: 23:15:08
(UTC+00:00)

ISS - Visible Passes

Search period start: 01 April 2020 00:00
Search period end: 11 April 2020 00:00
Orbit: 416 x 423 km, 51.6° (Epoch: 02 April)

Date Brightness Start Highest point End Pass type
(mag) Time Alt. Az. Time Alt. Az. Time Alt. Az.
01 Apr -2.6 20:34:36 10° W 20:37:38 32° SW 20:37:45 31° SSW visible
02 Apr -3.1 19:47:05 10° WNW 19:50:19 46° SSW 19:52:19 20° SE visible
03 Apr -1.4 20:37:20 10° WSW 20:39:15 15° SW 20:39:54 14° SSW visible
04 Apr -1.7 19:49:22 10° W 19:52:00 21° SW 19:54:34 10° SSE visible
